Dayton Wright, OH

10:26 AM EDT on April 23, 2018 (GMT -0400)
Dayton-Wright Brothers

Weather History for KMGY - October, 2013

Change the Weather History Date:

Saturday, October 26, 2013

  Actual Average (KFFO) Record (KFFO)
Temperature  
Mean Temperature 39 °F -  
Max Temperature 50 °F 59 °F 78 °F (2000)
Min Temperature 28 °F 39 °F 30 °F (2017)
Degree Days  
Heating Degree Days 26    
Moisture  
Dew Point 29 °F    
Average Humidity 65    
Maximum Humidity 82    
Minimum Humidity 48    
Precipitation  
Precipitation 0.00 in - - ()
Sea Level Pressure  
Sea Level Pressure 30.09 in    
Wind  
Wind Speed 8 mph (SSW)    
Max Wind Speed 18 mph    
Max Gust Speed 29 mph    
Visibility 10 miles    
Events      
Averages and records for this station are not official NWS values.
T = Trace of Precipitation, MM = Missing Value Source: NWS Daily Summary

Daily Weather History Graph

Daily Weather History Graph

Search for Another Location

Airport or City:

Astronomy

Oct. 26, 2013 Rise Set
Actual Time 7:58 AM EDT 6:42 PM EDT
Civil Twilight 7:31 AM EDT 7:09 PM EDT
Nautical Twilight 6:59 AM EDT 7:41 PM EDT
Astronomical Twilight 6:28 AM EDT 8:12 PM EDT
Moon 12:02 AM EDT (10/26) 2:14 PM EDT (10/26)
Length of Visible Light 11h 38m
Length of Day
10h 43m
Waning Gibbous, 53% of the Moon is Illuminated
Oct 26
Waning Gibbous
Oct 26
Last Quarter
Nov 3
New
Nov 10
First Quarter
Nov 17
Full

Hourly Weather History & Observations

Time (EDT) Temp. Windchill Dew Point Humidity Pressure Visibility Wind Dir Wind Speed Gust Speed Precip Events Conditions
12:53 AM 30.9 °F 25.2 °F 25.0 °F 79% 30.27 in 10.0 mi South 5.8 mph - N/A   Clear
1:53 AM 30.9 °F 25.2 °F 25.0 °F 79% 30.25 in 10.0 mi South 5.8 mph - N/A   Clear
2:53 AM 30.9 °F 23.5 °F 25.0 °F 79% 30.24 in 10.0 mi South 8.1 mph - N/A   Clear
3:53 AM 30.9 °F 24.3 °F 25.0 °F 79% 30.22 in 10.0 mi South 6.9 mph - N/A   Clear
4:53 AM 30.9 °F 23.5 °F 25.0 °F 79% 30.20 in 10.0 mi SSW 8.1 mph - N/A   Clear
5:53 AM 28.9 °F 21.1 °F 24.1 °F 82% 30.19 in 10.0 mi South 8.1 mph - N/A   Clear
6:53 AM 28.9 °F 21.1 °F 24.1 °F 82% 30.18 in 10.0 mi South 8.1 mph - N/A   Clear
7:53 AM 30.0 °F 21.7 °F 24.1 °F 79% 30.17 in 10.0 mi South 9.2 mph - N/A   Clear
8:53 AM 33.1 °F 24.4 °F 26.1 °F 75% 30.14 in 10.0 mi South 11.5 mph - N/A   Clear
9:53 AM 39.9 °F 32.5 °F 27.0 °F 60% 30.11 in 10.0 mi SSW 12.7 mph 20.7 mph N/A   Mostly Cloudy
10:53 AM 43.0 °F 34.8 °F 26.1 °F 51% 30.08 in 10.0 mi SW 18.4 mph 26.5 mph N/A   Overcast
11:53 AM 44.1 °F 36.8 °F 27.0 °F 51% 30.06 in 10.0 mi SSW 16.1 mph 28.8 mph N/A   Overcast
12:53 PM 45.0 °F 38.2 °F 26.1 °F 48% 30.04 in 10.0 mi SW 15.0 mph 27.6 mph N/A   Overcast
1:53 PM 45.0 °F 37.6 °F 27.0 °F 49% 30.00 in 10.0 mi SSW 17.3 mph 25.3 mph N/A   Overcast
2:53 PM 46.0 °F 39.3 °F 30.0 °F 54% 29.96 in 10.0 mi SW 16.1 mph 25.3 mph N/A   Overcast
3:53 PM 46.9 °F - 30.9 °F 54% 29.95 in 10.0 mi SW 17.3 mph 26.5 mph N/A   Mostly Cloudy
4:53 PM 48.9 °F - 32.0 °F 52% 29.96 in 10.0 mi WSW 10.4 mph 21.9 mph N/A   Overcast
5:53 PM 48.9 °F - 34.0 °F 56% 29.98 in 10.0 mi Calm Calm - N/A   Overcast
6:53 PM 46.0 °F 44.8 °F 36.0 °F 68% 29.99 in 10.0 mi South 3.5 mph - N/A   Overcast
7:53 PM 50.0 °F - 35.1 °F 57% 30.00 in 10.0 mi Calm Calm - N/A   Overcast
8:53 PM 48.9 °F - 36.0 °F 61% 30.02 in 10.0 mi West 4.6 mph - N/A   Overcast
9:53 PM 48.9 °F - 36.0 °F 61% 30.03 in 10.0 mi West 3.5 mph - N/A   Overcast
10:53 PM 46.9 °F - 35.1 °F 63% 30.04 in 10.0 mi NW 4.6 mph - N/A   Scattered Clouds
11:53 PM 44.1 °F - 34.0 °F 68% 30.06 in 10.0 mi Calm Calm - N/A   Partly Cloudy